This is the latest recevied weather packets stored in our database for station/object DB5ZQ. If no packets are shown the sender has not sent any weather packets the latest 10 day(s).
| Time | Temp. | Humidity | Pressure | Rain* | Wind** | Luminosity | Snow |
|---|---|---|---|---|---|---|---|
| 1788141987 | 19.44° C | 80% | 1009.7 hPa | 4.06 mm | - | - | - |
| 1788141687 | 19.44° C | 80% | 1009.5 hPa | 3.56 mm | - | - | - |
| 1788141386 | 19.44° C | 80% | 1009.4 hPa | 3.3 mm | - | - | - |
| 1788141086 | 20° C | 78% | 1009.8 hPa | 3.05 mm | - | - | - |
| 1788140786 | 20° C | 78% | 1009.7 hPa | 2.79 mm | - | - | - |
| 1788140485 | 20° C | 78% | 1009.7 hPa | 2.29 mm | - | - | - |
| 1788140185 | 20° C | 76% | 1009.8 hPa | 1.78 mm | - | - | - |
| 1788139885 | 20.56° C | 76% | 1009.7 hPa | 1.52 mm | - | - | - |
| 1788139585 | 20.56° C | 75% | 1009.6 hPa | 1.27 mm | - | - | - |
| 1788139284 | 20.56° C | 75% | 1009.6 hPa | 0.76 mm | - | - | - |
| 1788138984 | 20.56° C | 74% | 1009.5 hPa | 0.51 mm | - | - | - |
| 1788138684 | 20.56° C | 74% | 1009.4 hPa | 0.76 mm | - | - | - |
| 1788138384 | 21.11° C | 74% | 1009.2 hPa | 0.76 mm | - | - | - |
| 1788138083 | 21.11° C | 74% | 1009.2 hPa | 1.02 mm | - | - | - |
| 1788137783 | 21.11° C | 74% | 1009.3 hPa | 1.02 mm | - | - | - |
| 1788137483 | 21.11° C | 73% | 1009.3 hPa | 1.27 mm | - | - | - |
| 1788137182 | 21.11° C | 73% | 1009.3 hPa | 1.02 mm | - | - | - |
| 1788136882 | 21.11° C | 73% | 1009.5 hPa | 1.27 mm | - | - | - |
| 1788136582 | 21.11° C | 72% | 1009.4 hPa | 1.27 mm | - | - | - |
| 1788136282 | 21.11° C | 72% | 1009.6 hPa | 1.27 mm | - | - | - |
| 1788135981 | 21.11° C | 71% | 1009.6 hPa | 1.02 mm | - | - | - |
| 1788135681 | 21.11° C | 70% | 1009.7 hPa | 1.02 mm | - | - | - |
| 1788135381 | 21.11° C | 69% | 1009.8 hPa | 1.02 mm | - | - | - |
| 1788135080 | 21.11° C | 68% | 1009.8 hPa | 0.76 mm | - | - | - |
| 1788134780 | 21.67° C | 67% | 1009.8 hPa | 0.76 mm | - | - | - |
* Rain latest hour (hover to see other rain measurements)
** Current wind speed in m/s (hover to see current wind gust speed)